owner,sensor,date,latitude,longitude,air_pressure(mBar),qcFlag 
COMPS,ioos:station:USF.COMPS:EGK:1,2010-12-01T00:00:00Z,27.6010,-82.7510,1016.5,1111122 
COMPS,ioos:station:USF.COMPS:EGK:1,2010-12-01T00:06:00Z,27.6010,-82.7510,1016.72,1111122 
COMPS,ioos:station:USF.COMPS:EGK:1,2010-12-01T00:12:00Z,27.6010,-82.7510,1016.73,1111122 
COMPS,ioos:station:USF.COMPS:EGK:1,2010-12-01T00:18:00Z,27.6010,-82.7510,1016.85,1111122 
COMPS,ioos:station:USF.COMPS:EGK:1,2010-12-01T00:24:00Z,27.6010,-82.7510,1016.94,1111122 
COMPS,ioos:station:USF.COMPS:EGK:1,2010-12-01T00:30:00Z,27.6010,-82.7510,1017.04,1111122 
COMPS,ioos:station:USF.COMPS:EGK:1,2010-12-01T00:36:00Z,27.6010,-82.7510,1017.05,1111122 
COMPS,ioos:station:USF.COMPS:EGK:1,2010-12-01T00:42:00Z,27.6010,-82.7510,1017.13,1111122 
COMPS,ioos:station:USF.COMPS:EGK:1,2010-12-01T00:48:00Z,27.6010,-82.7510,1017.24,1111122 
COMPS,ioos:station:USF.COMPS:EGK:1,2010-12-01T00:54:00Z,27.6010,-82.7510,1017.3,1111122 
COMPS,ioos:station:USF.COMPS:EGK:1,2010-12-01T01:00:00Z,27.6010,-82.7510,1017.3,1111122 
COMPS,ioos:station:USF.COMPS:EGK:1,2010-12-01T01:06:00Z,27.6010,-82.7510,1017.52,1111122 
COMPS,ioos:station:USF.COMPS:EGK:1,2010-12-01T01:12:00Z,27.6010,-82.7510,1017.5,1111122 
COMPS,ioos:station:USF.COMPS:EGK:1,2010-12-01T01:18:00Z,27.6010,-82.7510,1017.52,1111122 
COMPS,ioos:station:USF.COMPS:EGK:1,2010-12-01T01:24:00Z,27.6010,-82.7510,1017.57,1111122 
COMPS,ioos:station:USF.COMPS:EGK:1,2010-12-01T01:30:00Z,27.6010,-82.7510,1017.7,1111122 
COMPS,ioos:station:USF.COMPS:EGK:1,2010-12-01T01:36:00Z,27.6010,-82.7510,1017.72,1111122 
COMPS,ioos:station:USF.COMPS:EGK:1,2010-12-01T01:42:00Z,27.6010,-82.7510,1017.62,1111122 
COMPS,ioos:station:USF.COMPS:EGK:1,2010-12-01T01:48:00Z,27.6010,-82.7510,1017.52,1111122 
COMPS,ioos:station:USF.COMPS:EGK:1,2010-12-01T01:54:00Z,27.6010,-82.7510,1017.52,1111122 
COMPS,ioos:station:USF.COMPS:EGK:1,2010-12-01T02:00:00Z,27.6010,-82.7510,1017.5,1111122 
COMPS,ioos:station:USF.COMPS:EGK:1,2010-12-01T02:06:00Z,27.6010,-82.7510,1017.52,1111122 
COMPS,ioos:station:USF.COMPS:EGK:1,2010-12-01T02:12:00Z,27.6010,-82.7510,1017.64,1111122 
COMPS,ioos:station:USF.COMPS:EGK:1,2010-12-01T02:18:00Z,27.6010,-82.7510,1017.73,1111122 
COMPS,ioos:station:USF.COMPS:EGK:1,2010-12-01T02:24:00Z,27.6010,-82.7510,1017.72,1111122 
COMPS,ioos:station:USF.COMPS:EGK:1,2010-12-01T02:30:00Z,27.6010,-82.7510,1017.84,1111122 
COMPS,ioos:station:USF.COMPS:EGK:1,2010-12-01T02:36:00Z,27.6010,-82.7510,1017.93,1111122 
COMPS,ioos:station:USF.COMPS:EGK:1,2010-12-01T02:42:00Z,27.6010,-82.7510,1017.98,1111122 
COMPS,ioos:station:USF.COMPS:EGK:1,2010-12-01T02:48:00Z,27.6010,-82.7510,1018.0,1111122 
COMPS,ioos:station:USF.COMPS:EGK:1,2010-12-01T02:54:00Z,27.6010,-82.7510,1018.0,1111122 
COMPS,ioos:station:USF.COMPS:EGK:1,2010-12-01T03:00:00Z,27.6010,-82.7510,1018.0,1111122 
COMPS,ioos:station:USF.COMPS:EGK:1,2010-12-01T13:00:00Z,27.6010,-82.7510,1020.25,1111122 
COMPS,ioos:station:USF.COMPS:EGK:1,2010-12-01T13:06:00Z,27.6010,-82.7510,1020.29,1111122 
COMPS,ioos:station:USF.COMPS:EGK:1,2010-12-01T13:12:00Z,27.6010,-82.7510,1020.49,1111122 
COMPS,ioos:station:USF.COMPS:EGK:1,2010-12-01T13:18:00Z,27.6010,-82.7510,1020.69,1111122 
COMPS,ioos:station:USF.COMPS:EGK:1,2010-12-01T13:24:00Z,27.6010,-82.7510,1020.8,1111122 
COMPS,ioos:station:USF.COMPS:EGK:1,2010-12-01T13:30:00Z,27.6010,-82.7510,1020.92,1111122 
COMPS,ioos:station:USF.COMPS:EGK:1,2010-12-01T13:36:00Z,27.6010,-82.7510,1021.05,1111122 
COMPS,ioos:station:USF.COMPS:EGK:1,2010-12-01T13:42:00Z,27.6010,-82.7510,1021.09,1111122 
COMPS,ioos:station:USF.COMPS:EGK:1,2010-12-01T13:48:00Z,27.6010,-82.7510,1021.24,1111122 
COMPS,ioos:station:USF.COMPS:EGK:1,2010-12-01T13:54:00Z,27.6010,-82.7510,1021.33,1111122 
COMPS,ioos:station:USF.COMPS:EGK:1,2010-12-01T14:00:00Z,27.6010,-82.7510,1021.3,1111122 
COMPS,ioos:station:USF.COMPS:EGK:1,2010-12-01T14:06:00Z,27.6010,-82.7510,1021.49,1111122 
COMPS,ioos:station:USF.COMPS:EGK:1,2010-12-01T14:12:00Z,27.6010,-82.7510,1021.65,1111122 
COMPS,ioos:station:USF.COMPS:EGK:1,2010-12-01T14:18:00Z,27.6010,-82.7510,1021.8,1111122 
COMPS,ioos:station:USF.COMPS:EGK:1,2010-12-01T14:24:00Z,27.6010,-82.7510,1021.86,1111122 
COMPS,ioos:station:USF.COMPS:EGK:1,2010-12-01T14:30:00Z,27.6010,-82.7510,1021.89,1111122 
COMPS,ioos:station:USF.COMPS:EGK:1,2010-12-01T14:36:00Z,27.6010,-82.7510,1022.0,1111122 
COMPS,ioos:station:USF.COMPS:EGK:1,2010-12-01T14:42:00Z,27.6010,-82.7510,1022.13,1111122 
COMPS,ioos:station:USF.COMPS:EGK:1,2010-12-01T14:48:00Z,27.6010,-82.7510,1022.21,1111122 
COMPS,ioos:station:USF.COMPS:EGK:1,2010-12-01T14:54:00Z,27.6010,-82.7510,1022.25,1111122 
COMPS,ioos:station:USF.COMPS:EGK:1,2010-12-01T15:00:00Z,27.6010,-82.7510,1022.3,1111122 
COMPS,ioos:station:USF.COMPS:EGK:1,2010-12-01T15:06:00Z,27.6010,-82.7510,1022.33,1111122 
COMPS,ioos:station:USF.COMPS:EGK:1,2010-12-01T15:12:00Z,27.6010,-82.7510,1022.36,1111122 
COMPS,ioos:station:USF.COMPS:EGK:1,2010-12-01T15:18:00Z,27.6010,-82.7510,1022.45,1111122 
COMPS,ioos:station:USF.COMPS:EGK:1,2010-12-01T15:24:00Z,27.6010,-82.7510,1022.5,1111122 
COMPS,ioos:station:USF.COMPS:EGK:1,2010-12-01T15:30:00Z,27.6010,-82.7510,1022.58,1111122 
COMPS,ioos:station:USF.COMPS:EGK:1,2010-12-01T15:36:00Z,27.6010,-82.7510,1022.61,1111122 
COMPS,ioos:station:USF.COMPS:EGK:1,2010-12-01T15:42:00Z,27.6010,-82.7510,1022.62,1111122 
COMPS,ioos:station:USF.COMPS:EGK:1,2010-12-01T15:48:00Z,27.6010,-82.7510,1022.66,1111122 
COMPS,ioos:station:USF.COMPS:EGK:1,2010-12-01T15:54:00Z,27.6010,-82.7510,1022.74,1111122 
COMPS,ioos:station:USF.COMPS:EGK:1,2010-12-01T16:00:00Z,27.6010,-82.7510,1022.7,1111122 
COMPS,ioos:station:USF.COMPS:EGK:1,2010-12-01T16:06:00Z,27.6010,-82.7510,1022.8,1111122 
COMPS,ioos:station:USF.COMPS:EGK:1,2010-12-01T16:12:00Z,27.6010,-82.7510,1022.77,1111122 
COMPS,ioos:station:USF.COMPS:EGK:1,2010-12-01T16:18:00Z,27.6010,-82.7510,1022.76,1111122 
COMPS,ioos:station:USF.COMPS:EGK:1,2010-12-01T16:24:00Z,27.6010,-82.7510,1022.66,1111122 
COMPS,ioos:station:USF.COMPS:EGK:1,2010-12-01T16:30:00Z,27.6010,-82.7510,1022.64,1111122 
COMPS,ioos:station:USF.COMPS:EGK:1,2010-12-01T16:36:00Z,27.6010,-82.7510,1022.62,1111122 
COMPS,ioos:station:USF.COMPS:EGK:1,2010-12-01T16:42:00Z,27.6010,-82.7510,1022.65,1111122 
COMPS,ioos:station:USF.COMPS:EGK:1,2010-12-01T16:48:00Z,27.6010,-82.7510,1022.61,1111122 
COMPS,ioos:station:USF.COMPS:EGK:1,2010-12-01T16:54:00Z,27.6010,-82.7510,1022.53,1111122 
COMPS,ioos:station:USF.COMPS:EGK:1,2010-12-01T17:00:00Z,27.6010,-82.7510,1022.5,1111122 
COMPS,ioos:station:USF.COMPS:EGK:1,2010-12-01T17:06:00Z,27.6010,-82.7510,1022.49,1111122 
COMPS,ioos:station:USF.COMPS:EGK:1,2010-12-01T17:12:00Z,27.6010,-82.7510,1022.48,1111122 
COMPS,ioos:station:USF.COMPS:EGK:1,2010-12-01T17:18:00Z,27.6010,-82.7510,1022.38,1111122 
COMPS,ioos:station:USF.COMPS:EGK:1,2010-12-01T17:24:00Z,27.6010,-82.7510,1022.33,1111122 
COMPS,ioos:station:USF.COMPS:EGK:1,2010-12-01T17:30:00Z,27.6010,-82.7510,1022.12,1111122 
COMPS,ioos:station:USF.COMPS:EGK:1,2010-12-01T17:36:00Z,27.6010,-82.7510,1022.02,1111122 
COMPS,ioos:station:USF.COMPS:EGK:1,2010-12-01T17:42:00Z,27.6010,-82.7510,1021.96,1111122 
COMPS,ioos:station:USF.COMPS:EGK:1,2010-12-01T17:48:00Z,27.6010,-82.7510,1021.82,1111122 
COMPS,ioos:station:USF.COMPS:EGK:1,2010-12-01T17:54:00Z,27.6010,-82.7510,1021.81,1111122 
COMPS,ioos:station:USF.COMPS:EGK:1,2010-12-01T18:00:00Z,27.6010,-82.7510,1021.8,1111122 
COMPS,ioos:station:USF.COMPS:EGK:1,2010-12-01T18:06:00Z,27.6010,-82.7510,1021.56,1111122 
COMPS,ioos:station:USF.COMPS:EGK:1,2010-12-01T18:12:00Z,27.6010,-82.7510,1021.42,1111122 
COMPS,ioos:station:USF.COMPS:EGK:1,2010-12-01T18:18:00Z,27.6010,-82.7510,1021.33,1111122 
COMPS,ioos:station:USF.COMPS:EGK:1,2010-12-01T18:24:00Z,27.6010,-82.7510,1021.28,1111122 
COMPS,ioos:station:USF.COMPS:EGK:1,2010-12-01T18:30:00Z,27.6010,-82.7510,1021.2,1111122 
COMPS,ioos:station:USF.COMPS:EGK:1,2010-12-01T18:36:00Z,27.6010,-82.7510,1021.04,1111122 
COMPS,ioos:station:USF.COMPS:EGK:1,2010-12-01T18:42:00Z,27.6010,-82.7510,1020.89,1111122 
COMPS,ioos:station:USF.COMPS:EGK:1,2010-12-01T18:48:00Z,27.6010,-82.7510,1020.81,1111122 
COMPS,ioos:station:USF.COMPS:EGK:1,2010-12-01T18:54:00Z,27.6010,-82.7510,1020.74,1111122 
COMPS,ioos:station:USF.COMPS:EGK:1,2010-12-01T19:00:00Z,27.6010,-82.7510,1020.7,1111122 
COMPS,ioos:station:USF.COMPS:EGK:1,2010-12-01T19:06:00Z,27.6010,-82.7510,1020.72,1111122 
COMPS,ioos:station:USF.COMPS:EGK:1,2010-12-01T19:12:00Z,27.6010,-82.7510,1020.72,1111122 
COMPS,ioos:station:USF.COMPS:EGK:1,2010-12-01T19:18:00Z,27.6010,-82.7510,1020.72,1111122 
COMPS,ioos:station:USF.COMPS:EGK:1,2010-12-01T19:24:00Z,27.6010,-82.7510,1020.69,1111122 
COMPS,ioos:station:USF.COMPS:EGK:1,2010-12-01T19:30:00Z,27.6010,-82.7510,1020.64,1111122 
COMPS,ioos:station:USF.COMPS:EGK:1,2010-12-01T19:36:00Z,27.6010,-82.7510,1020.57,1111122 
COMPS,ioos:station:USF.COMPS:EGK:1,2010-12-01T19:42:00Z,27.6010,-82.7510,1020.57,1111122 
COMPS,ioos:station:USF.COMPS:EGK:1,2010-12-01T19:48:00Z,27.6010,-82.7510,1020.58,1111122 
COMPS,ioos:station:USF.COMPS:EGK:1,2010-12-01T19:54:00Z,27.6010,-82.7510,1020.56,1111122 
COMPS,ioos:station:USF.COMPS:EGK:1,2010-12-01T20:00:00Z,27.6010,-82.7510,1020.6,1111122 
COMPS,ioos:station:USF.COMPS:EGK:1,2010-12-01T20:06:00Z,27.6010,-82.7510,1020.45,1111122 
COMPS,ioos:station:USF.COMPS:EGK:1,2010-12-01T20:12:00Z,27.6010,-82.7510,1020.45,1111122 
COMPS,ioos:station:USF.COMPS:EGK:1,2010-12-01T20:18:00Z,27.6010,-82.7510,1020.53,1111122 
COMPS,ioos:station:USF.COMPS:EGK:1,2010-12-01T20:24:00Z,27.6010,-82.7510,1020.56,1111122 
COMPS,ioos:station:USF.COMPS:EGK:1,2010-12-01T20:30:00Z,27.6010,-82.7510,1020.49,1111122 
COMPS,ioos:station:USF.COMPS:EGK:1,2010-12-01T20:36:00Z,27.6010,-82.7510,1020.49,1111122 
COMPS,ioos:station:USF.COMPS:EGK:1,2010-12-01T20:42:00Z,27.6010,-82.7510,1020.54,1111122 
COMPS,ioos:station:USF.COMPS:EGK:1,2010-12-01T20:48:00Z,27.6010,-82.7510,1020.53,1111122 
COMPS,ioos:station:USF.COMPS:EGK:1,2010-12-01T20:54:00Z,27.6010,-82.7510,1020.61,1111122 
COMPS,ioos:station:USF.COMPS:EGK:1,2010-12-01T21:00:00Z,27.6010,-82.7510,1020.6,1111122 
COMPS,ioos:station:USF.COMPS:EGK:1,2010-12-01T21:06:00Z,27.6010,-82.7510,1020.7,1111122 
COMPS,ioos:station:USF.COMPS:EGK:1,2010-12-01T21:12:00Z,27.6010,-82.7510,1020.72,1111122 
COMPS,ioos:station:USF.COMPS:EGK:1,2010-12-01T21:18:00Z,27.6010,-82.7510,1020.72,1111122 
COMPS,ioos:station:USF.COMPS:EGK:1,2010-12-01T21:24:00Z,27.6010,-82.7510,1020.72,1111122 
COMPS,ioos:station:USF.COMPS:EGK:1,2010-12-01T21:30:00Z,27.6010,-82.7510,1020.73,1111122 
COMPS,ioos:station:USF.COMPS:EGK:1,2010-12-01T21:36:00Z,27.6010,-82.7510,1020.76,1111122 
COMPS,ioos:station:USF.COMPS:EGK:1,2010-12-01T21:42:00Z,27.6010,-82.7510,1020.74,1111122 
COMPS,ioos:station:USF.COMPS:EGK:1,2010-12-01T21:48:00Z,27.6010,-82.7510,1020.77,1111122 
COMPS,ioos:station:USF.COMPS:EGK:1,2010-12-01T21:54:00Z,27.6010,-82.7510,1020.85,1111122 
COMPS,ioos:station:USF.COMPS:EGK:1,2010-12-01T22:00:00Z,27.6010,-82.7510,1020.9,1111122 
COMPS,ioos:station:USF.COMPS:EGK:1,2010-12-01T22:06:00Z,27.6010,-82.7510,1020.78,1111122 
COMPS,ioos:station:USF.COMPS:EGK:1,2010-12-01T22:12:00Z,27.6010,-82.7510,1020.89,1111122 
COMPS,ioos:station:USF.COMPS:EGK:1,2010-12-01T22:18:00Z,27.6010,-82.7510,1020.92,1111122 
COMPS,ioos:station:USF.COMPS:EGK:1,2010-12-01T22:24:00Z,27.6010,-82.7510,1020.96,1111122 
COMPS,ioos:station:USF.COMPS:EGK:1,2010-12-01T22:30:00Z,27.6010,-82.7510,1021.01,1111122 
COMPS,ioos:station:USF.COMPS:EGK:1,2010-12-01T22:36:00Z,27.6010,-82.7510,1021.0,1111122 
COMPS,ioos:station:USF.COMPS:EGK:1,2010-12-01T22:42:00Z,27.6010,-82.7510,1020.96,1111122 
COMPS,ioos:station:USF.COMPS:EGK:1,2010-12-01T22:48:00Z,27.6010,-82.7510,1020.93,1111122 
COMPS,ioos:station:USF.COMPS:EGK:1,2010-12-01T22:54:00Z,27.6010,-82.7510,1020.96,1111122 
COMPS,ioos:station:USF.COMPS:EGK:1,2010-12-01T23:00:00Z,27.6010,-82.7510,1021.0,1111122 
COMPS,ioos:station:USF.COMPS:EGK:1,2010-12-01T23:06:00Z,27.6010,-82.7510,1021.13,1111122 
COMPS,ioos:station:USF.COMPS:EGK:1,2010-12-01T23:12:00Z,27.6010,-82.7510,1021.25,1111122 
COMPS,ioos:station:USF.COMPS:EGK:1,2010-12-01T23:18:00Z,27.6010,-82.7510,1021.3,1111122 
COMPS,ioos:station:USF.COMPS:EGK:1,2010-12-01T23:24:00Z,27.6010,-82.7510,1021.3,1111122 
COMPS,ioos:station:USF.COMPS:EGK:1,2010-12-01T23:30:00Z,27.6010,-82.7510,1021.3,1111122 
COMPS,ioos:station:USF.COMPS:EGK:1,2010-12-01T23:36:00Z,27.6010,-82.7510,1021.4,1111122 
COMPS,ioos:station:USF.COMPS:EGK:1,2010-12-01T23:42:00Z,27.6010,-82.7510,1021.38,1111122 
COMPS,ioos:station:USF.COMPS:EGK:1,2010-12-01T23:48:00Z,27.6010,-82.7510,1021.37,1111122 
COMPS,ioos:station:USF.COMPS:EGK:1,2010-12-01T23:54:00Z,27.6010,-82.7510,1021.37,1111122 
COMPS,ioos:station:USF.COMPS:EGK:1,2010-12-02T00:00:00Z,27.6010,-82.7510,1021.4,1111122 
COMPS,ioos:station:USF.COMPS:EGK:1,2010-12-02T00:06:00Z,27.6010,-82.7510,1021.42,1111122 
COMPS,ioos:station:USF.COMPS:EGK:1,2010-12-02T00:12:00Z,27.6010,-82.7510,1021.53,1111122 
COMPS,ioos:station:USF.COMPS:EGK:1,2010-12-02T00:18:00Z,27.6010,-82.7510,1021.57,1111122 
COMPS,ioos:station:USF.COMPS:EGK:1,2010-12-02T00:24:00Z,27.6010,-82.7510,1021.65,1111122 
COMPS,ioos:station:USF.COMPS:EGK:1,2010-12-02T00:30:00Z,27.6010,-82.7510,1021.77,1111122 
COMPS,ioos:station:USF.COMPS:EGK:1,2010-12-02T00:36:00Z,27.6010,-82.7510,1021.81,1111122 
COMPS,ioos:station:USF.COMPS:EGK:1,2010-12-02T00:42:00Z,27.6010,-82.7510,1021.81,1111122 
COMPS,ioos:station:USF.COMPS:EGK:1,2010-12-02T00:48:00Z,27.6010,-82.7510,1021.9,1111122 
COMPS,ioos:station:USF.COMPS:EGK:1,2010-12-02T00:54:00Z,27.6010,-82.7510,1021.9,1111122 
COMPS,ioos:station:USF.COMPS:EGK:1,2010-12-02T01:00:00Z,27.6010,-82.7510,1021.9,1111122 
COMPS,ioos:station:USF.COMPS:EGK:1,2010-12-02T01:06:00Z,27.6010,-82.7510,1021.92,1111122 
COMPS,ioos:station:USF.COMPS:EGK:1,2010-12-02T01:12:00Z,27.6010,-82.7510,1021.93,1111122 
COMPS,ioos:station:USF.COMPS:EGK:1,2010-12-02T01:18:00Z,27.6010,-82.7510,1021.93,1111122 
COMPS,ioos:station:USF.COMPS:EGK:1,2010-12-02T01:24:00Z,27.6010,-82.7510,1021.96,1111122 
COMPS,ioos:station:USF.COMPS:EGK:1,2010-12-02T01:30:00Z,27.6010,-82.7510,1021.96,1111122 
COMPS,ioos:station:USF.COMPS:EGK:1,2010-12-02T01:36:00Z,27.6010,-82.7510,1022.02,1111122 
COMPS,ioos:station:USF.COMPS:EGK:1,2010-12-02T01:42:00Z,27.6010,-82.7510,1022.08,1111122 
COMPS,ioos:station:USF.COMPS:EGK:1,2010-12-02T01:48:00Z,27.6010,-82.7510,1022.14,1111122 
COMPS,ioos:station:USF.COMPS:EGK:1,2010-12-02T01:54:00Z,27.6010,-82.7510,1022.18,1111122 
COMPS,ioos:station:USF.COMPS:EGK:1,2010-12-02T02:00:00Z,27.6010,-82.7510,1022.2,1111122 
COMPS,ioos:station:USF.COMPS:EGK:1,2010-12-02T02:06:00Z,27.6010,-82.7510,1022.26,1111122 
COMPS,ioos:station:USF.COMPS:EGK:1,2010-12-02T02:12:00Z,27.6010,-82.7510,1022.36,1111122 
COMPS,ioos:station:USF.COMPS:EGK:1,2010-12-02T02:18:00Z,27.6010,-82.7510,1022.34,1111122 
COMPS,ioos:station:USF.COMPS:EGK:1,2010-12-02T02:24:00Z,27.6010,-82.7510,1022.41,1111122 
COMPS,ioos:station:USF.COMPS:EGK:1,2010-12-02T02:30:00Z,27.6010,-82.7510,1022.45,1111122 
COMPS,ioos:station:USF.COMPS:EGK:1,2010-12-02T02:36:00Z,27.6010,-82.7510,1022.46,1111122 
COMPS,ioos:station:USF.COMPS:EGK:1,2010-12-02T02:42:00Z,27.6010,-82.7510,1022.54,1111122 
COMPS,ioos:station:USF.COMPS:EGK:1,2010-12-02T02:48:00Z,27.6010,-82.7510,1022.62,1111122 
COMPS,ioos:station:USF.COMPS:EGK:1,2010-12-02T02:54:00Z,27.6010,-82.7510,1022.6,1111122 
COMPS,ioos:station:USF.COMPS:EGK:1,2010-12-02T03:00:00Z,27.6010,-82.7510,1022.6,1111122 
COMPS,ioos:station:USF.COMPS:EGK:1,2010-12-02T11:00:00Z,27.6010,-82.7510,1023.61,1111122 
COMPS,ioos:station:USF.COMPS:EGK:1,2010-12-02T11:06:00Z,27.6010,-82.7510,1023.68,1111122 
COMPS,ioos:station:USF.COMPS:EGK:1,2010-12-02T11:12:00Z,27.6010,-82.7510,1023.7,1111122 
COMPS,ioos:station:USF.COMPS:EGK:1,2010-12-02T11:18:00Z,27.6010,-82.7510,1023.82,1111122 
COMPS,ioos:station:USF.COMPS:EGK:1,2010-12-02T11:24:00Z,27.6010,-82.7510,1023.98,1111122 
COMPS,ioos:station:USF.COMPS:EGK:1,2010-12-02T11:30:00Z,27.6010,-82.7510,1024.14,1111122 
COMPS,ioos:station:USF.COMPS:EGK:1,2010-12-02T11:36:00Z,27.6010,-82.7510,1024.17,1111122 
COMPS,ioos:station:USF.COMPS:EGK:1,2010-12-02T11:42:00Z,27.6010,-82.7510,1024.16,1111122 
COMPS,ioos:station:USF.COMPS:EGK:1,2010-12-02T11:48:00Z,27.6010,-82.7510,1024.17,1111122 
COMPS,ioos:station:USF.COMPS:EGK:1,2010-12-02T11:54:00Z,27.6010,-82.7510,1024.2,1111122 
COMPS,ioos:station:USF.COMPS:EGK:1,2010-12-02T12:00:00Z,27.6010,-82.7510,1024.2,1111122 
COMPS,ioos:station:USF.COMPS:EGK:1,2010-12-02T12:06:00Z,27.6010,-82.7510,1024.25,1111122 
COMPS,ioos:station:USF.COMPS:EGK:1,2010-12-02T12:12:00Z,27.6010,-82.7510,1024.33,1111122 
COMPS,ioos:station:USF.COMPS:EGK:1,2010-12-02T12:18:00Z,27.6010,-82.7510,1024.44,1111122 
COMPS,ioos:station:USF.COMPS:EGK:1,2010-12-02T12:24:00Z,27.6010,-82.7510,1024.48,1111122 
COMPS,ioos:station:USF.COMPS:EGK:1,2010-12-02T12:30:00Z,27.6010,-82.7510,1024.52,1111122 
COMPS,ioos:station:USF.COMPS:EGK:1,2010-12-02T12:36:00Z,27.6010,-82.7510,1024.61,1111122 
COMPS,ioos:station:USF.COMPS:EGK:1,2010-12-02T12:42:00Z,27.6010,-82.7510,1024.62,1111122 
COMPS,ioos:station:USF.COMPS:EGK:1,2010-12-02T12:48:00Z,27.6010,-82.7510,1024.66,1111122 
COMPS,ioos:station:USF.COMPS:EGK:1,2010-12-02T12:54:00Z,27.6010,-82.7510,1024.72,1111122 
COMPS,ioos:station:USF.COMPS:EGK:1,2010-12-02T13:00:00Z,27.6010,-82.7510,1024.7,1111122 
COMPS,ioos:station:USF.COMPS:EGK:1,2010-12-02T13:06:00Z,27.6010,-82.7510,1024.86,1111122 
COMPS,ioos:station:USF.COMPS:EGK:1,2010-12-02T13:12:00Z,27.6010,-82.7510,1024.84,1111122 
COMPS,ioos:station:USF.COMPS:EGK:1,2010-12-02T13:18:00Z,27.6010,-82.7510,1024.89,1111122 
COMPS,ioos:station:USF.COMPS:EGK:1,2010-12-02T13:24:00Z,27.6010,-82.7510,1024.98,1111122 
COMPS,ioos:station:USF.COMPS:EGK:1,2010-12-02T13:30:00Z,27.6010,-82.7510,1024.96,1111122 
COMPS,ioos:station:USF.COMPS:EGK:1,2010-12-02T13:36:00Z,27.6010,-82.7510,1025.0,1111122 
COMPS,ioos:station:USF.COMPS:EGK:1,2010-12-02T13:42:00Z,27.6010,-82.7510,1025.14,1111122 
COMPS,ioos:station:USF.COMPS:EGK:1,2010-12-02T13:48:00Z,27.6010,-82.7510,1025.2,1111122 
COMPS,ioos:station:USF.COMPS:EGK:1,2010-12-02T13:54:00Z,27.6010,-82.7510,1025.26,1111122 
COMPS,ioos:station:USF.COMPS:EGK:1,2010-12-02T14:00:00Z,27.6010,-82.7510,1025.3,1111122 
COMPS,ioos:station:USF.COMPS:EGK:1,2010-12-02T14:06:00Z,27.6010,-82.7510,1025.29,1111122 
COMPS,ioos:station:USF.COMPS:EGK:1,2010-12-02T14:12:00Z,27.6010,-82.7510,1025.29,1111122 
COMPS,ioos:station:USF.COMPS:EGK:1,2010-12-02T14:18:00Z,27.6010,-82.7510,1025.34,1111122 
COMPS,ioos:station:USF.COMPS:EGK:1,2010-12-02T14:24:00Z,27.6010,-82.7510,1025.36,1111122 
COMPS,ioos:station:USF.COMPS:EGK:1,2010-12-02T14:30:00Z,27.6010,-82.7510,1025.36,1111122 
COMPS,ioos:station:USF.COMPS:EGK:1,2010-12-02T14:36:00Z,27.6010,-82.7510,1025.36,1111122 
COMPS,ioos:station:USF.COMPS:EGK:1,2010-12-02T14:42:00Z,27.6010,-82.7510,1025.26,1111122 
COMPS,ioos:station:USF.COMPS:EGK:1,2010-12-02T14:48:00Z,27.6010,-82.7510,1025.13,1111122 
COMPS,ioos:station:USF.COMPS:EGK:1,2010-12-02T14:54:00Z,27.6010,-82.7510,1025.13,1111122 
COMPS,ioos:station:USF.COMPS:EGK:1,2010-12-02T15:00:00Z,27.6010,-82.7510,1025.1,1111122 
COMPS,ioos:station:USF.COMPS:EGK:1,2010-12-02T15:06:00Z,27.6010,-82.7510,1025.05,1111122 
COMPS,ioos:station:USF.COMPS:EGK:1,2010-12-02T15:12:00Z,27.6010,-82.7510,1025.12,1111122 
COMPS,ioos:station:USF.COMPS:EGK:1,2010-12-02T15:18:00Z,27.6010,-82.7510,1025.24,1111122 
COMPS,ioos:station:USF.COMPS:EGK:1,2010-12-02T15:24:00Z,27.6010,-82.7510,1025.25,1111122 
COMPS,ioos:station:USF.COMPS:EGK:1,2010-12-02T15:30:00Z,27.6010,-82.7510,1025.32,1111122 
COMPS,ioos:station:USF.COMPS:EGK:1,2010-12-02T15:36:00Z,27.6010,-82.7510,1025.3,1111122 
COMPS,ioos:station:USF.COMPS:EGK:1,2010-12-02T15:42:00Z,27.6010,-82.7510,1025.29,1111122 
COMPS,ioos:station:USF.COMPS:EGK:1,2010-12-02T15:48:00Z,27.6010,-82.7510,1025.29,1111122 
COMPS,ioos:station:USF.COMPS:EGK:1,2010-12-02T15:54:00Z,27.6010,-82.7510,1025.32,1111122 
COMPS,ioos:station:USF.COMPS:EGK:1,2010-12-02T16:00:00Z,27.6010,-82.7510,1025.3,1111122 
COMPS,ioos:station:USF.COMPS:EGK:1,2010-12-02T17:00:00Z,27.6010,-82.7510,1024.4,1111122 
COMPS,ioos:station:USF.COMPS:EGK:1,2010-12-02T17:06:00Z,27.6010,-82.7510,1024.13,1111122 
COMPS,ioos:station:USF.COMPS:EGK:1,2010-12-02T17:12:00Z,27.6010,-82.7510,1024.01,1111122 
COMPS,ioos:station:USF.COMPS:EGK:1,2010-12-02T17:18:00Z,27.6010,-82.7510,1023.84,1111122 
COMPS,ioos:station:USF.COMPS:EGK:1,2010-12-02T17:24:00Z,27.6010,-82.7510,1023.73,1111122 
COMPS,ioos:station:USF.COMPS:EGK:1,2010-12-02T17:30:00Z,27.6010,-82.7510,1023.57,1111122 
COMPS,ioos:station:USF.COMPS:EGK:1,2010-12-02T17:36:00Z,27.6010,-82.7510,1023.56,1111122 
COMPS,ioos:station:USF.COMPS:EGK:1,2010-12-02T17:42:00Z,27.6010,-82.7510,1023.57,1111122 
COMPS,ioos:station:USF.COMPS:EGK:1,2010-12-02T17:48:00Z,27.6010,-82.7510,1023.42,1111122 
COMPS,ioos:station:USF.COMPS:EGK:1,2010-12-02T17:54:00Z,27.6010,-82.7510,1023.3,1111122 
COMPS,ioos:station:USF.COMPS:EGK:1,2010-12-02T18:00:00Z,27.6010,-82.7510,1023.3,1111122 
COMPS,ioos:station:USF.COMPS:EGK:1,2010-12-02T18:06:00Z,27.6010,-82.7510,1023.04,1111122 
COMPS,ioos:station:USF.COMPS:EGK:1,2010-12-02T18:12:00Z,27.6010,-82.7510,1023.0,1111122 
COMPS,ioos:station:USF.COMPS:EGK:1,2010-12-02T18:18:00Z,27.6010,-82.7510,1022.82,1111122 
COMPS,ioos:station:USF.COMPS:EGK:1,2010-12-02T18:24:00Z,27.6010,-82.7510,1022.76,1111122 
COMPS,ioos:station:USF.COMPS:EGK:1,2010-12-02T18:30:00Z,27.6010,-82.7510,1022.65,1111122 
COMPS,ioos:station:USF.COMPS:EGK:1,2010-12-02T18:36:00Z,27.6010,-82.7510,1022.52,1111122 
COMPS,ioos:station:USF.COMPS:EGK:1,2010-12-02T18:42:00Z,27.6010,-82.7510,1022.44,1111122 
COMPS,ioos:station:USF.COMPS:EGK:1,2010-12-02T18:48:00Z,27.6010,-82.7510,1022.3,1111122 
COMPS,ioos:station:USF.COMPS:EGK:1,2010-12-02T18:54:00Z,27.6010,-82.7510,1022.28,1111122 
COMPS,ioos:station:USF.COMPS:EGK:1,2010-12-02T19:00:00Z,27.6010,-82.7510,1022.3,1111122 
COMPS,ioos:station:USF.COMPS:EGK:1,2010-12-02T19:06:00Z,27.6010,-82.7510,1022.08,1111122 
COMPS,ioos:station:USF.COMPS:EGK:1,2010-12-02T19:12:00Z,27.6010,-82.7510,1021.96,1111122 
COMPS,ioos:station:USF.COMPS:EGK:1,2010-12-02T19:18:00Z,27.6010,-82.7510,1021.88,1111122 
COMPS,ioos:station:USF.COMPS:EGK:1,2010-12-02T19:24:00Z,27.6010,-82.7510,1021.88,1111122 
COMPS,ioos:station:USF.COMPS:EGK:1,2010-12-02T19:30:00Z,27.6010,-82.7510,1021.8,1111122 
COMPS,ioos:station:USF.COMPS:EGK:1,2010-12-02T19:36:00Z,27.6010,-82.7510,1021.74,1111122 
COMPS,ioos:station:USF.COMPS:EGK:1,2010-12-02T19:42:00Z,27.6010,-82.7510,1021.65,1111122 
COMPS,ioos:station:USF.COMPS:EGK:1,2010-12-02T19:48:00Z,27.6010,-82.7510,1021.57,1111122 
COMPS,ioos:station:USF.COMPS:EGK:1,2010-12-02T19:54:00Z,27.6010,-82.7510,1021.56,1111122 
COMPS,ioos:station:USF.COMPS:EGK:1,2010-12-02T20:00:00Z,27.6010,-82.7510,1021.6,1111122 
COMPS,ioos:station:USF.COMPS:EGK:1,2010-12-02T20:06:00Z,27.6010,-82.7510,1021.62,1111122 
COMPS,ioos:station:USF.COMPS:EGK:1,2010-12-02T20:12:00Z,27.6010,-82.7510,1021.53,1111122 
COMPS,ioos:station:USF.COMPS:EGK:1,2010-12-02T20:18:00Z,27.6010,-82.7510,1021.53,1111122 
COMPS,ioos:station:USF.COMPS:EGK:1,2010-12-02T20:24:00Z,27.6010,-82.7510,1021.54,1111122 
COMPS,ioos:station:USF.COMPS:EGK:1,2010-12-02T20:30:00Z,27.6010,-82.7510,1021.5,1111122 
COMPS,ioos:station:USF.COMPS:EGK:1,2010-12-02T20:36:00Z,27.6010,-82.7510,1021.48,1111122 
COMPS,ioos:station:USF.COMPS:EGK:1,2010-12-02T20:42:00Z,27.6010,-82.7510,1021.5,1111122 
COMPS,ioos:station:USF.COMPS:EGK:1,2010-12-02T20:48:00Z,27.6010,-82.7510,1021.46,1111122 
COMPS,ioos:station:USF.COMPS:EGK:1,2010-12-02T20:54:00Z,27.6010,-82.7510,1021.46,1111122 
COMPS,ioos:station:USF.COMPS:EGK:1,2010-12-02T21:00:00Z,27.6010,-82.7510,1021.5,1111122 
COMPS,ioos:station:USF.COMPS:EGK:1,2010-12-02T21:06:00Z,27.6010,-82.7510,1021.48,1111122 
COMPS,ioos:station:USF.COMPS:EGK:1,2010-12-02T21:12:00Z,27.6010,-82.7510,1021.45,1111122 